This is the latest recevied weather packets stored in our database for station/object KE0LFX. If no packets are shown the sender has not sent any weather packets the latest 10 day(s).
| Time | Temp. | Humidity | Pressure | Rain* | Wind** | Luminosity | Snow |
|---|---|---|---|---|---|---|---|
| 1778166331 | 12.78° C | 58% | 1016.6 hPa | 0 mm | - | 194 W/m² | - |
| 1778166028 | 12.78° C | 59% | 1016.3 hPa | 0 mm | - | 179 W/m² | - |
| 1778165728 | 12.22° C | 60% | 1016 hPa | 0 mm | - | 171 W/m² | - |
| 1778165426 | 12.22° C | 61% | 1015.9 hPa | 0 mm | - | 166 W/m² | - |
| 1778165122 | 12.22° C | 61% | 1016.4 hPa | 0 mm | - | 193 W/m² | - |
| 1778164820 | 12.22° C | 62% | 1016.1 hPa | 0 mm | - | 177 W/m² | - |
| 1778164517 | 12.22° C | 61% | 1016.3 hPa | 0 mm | - | 150 W/m² | - |
| 1778164215 | 12.22° C | 60% | 1016 hPa | 0 mm | - | 199 W/m² | - |
| 1778163909 | 11.67° C | 61% | 1016.4 hPa | 0 mm | - | 146 W/m² | - |
| 1778163607 | 11.67° C | 61% | 1016 hPa | 0 mm | - | 65 W/m² | - |
| 1778163303 | 11.11° C | 61% | 1016.8 hPa | 0 mm | - | 54 W/m² | - |
| 1778162999 | 10.56° C | 61% | 1016.7 hPa | 0 mm | - | 52 W/m² | - |
| 1778162696 | 10.56° C | 60% | 1016.8 hPa | 0 mm | - | 67 W/m² | - |
| 1778162394 | 10.56° C | 59% | 1017 hPa | 0 mm | - | 75 W/m² | - |
| 1778162090 | 10.56° C | 59% | 1016.8 hPa | 0 mm | - | 81 W/m² | - |
| 1778161788 | 10° C | 59% | 1017.2 hPa | 0 mm | - | 134 W/m² | - |
| 1778161484 | 9.44° C | 59% | 1017.1 hPa | 0 mm | - | 77 W/m² | - |
| 1778161180 | 9.44° C | 59% | 1017 hPa | 0 mm | - | 66 W/m² | - |
| 1778160876 | 9.44° C | 59% | 1016.8 hPa | 0 mm | - | 82 W/m² | - |
| 1778160575 | 9.44° C | 58% | 1016.8 hPa | 0 mm | - | 93 W/m² | - |
| 1778160271 | 9.44° C | 57% | 1017 hPa | 0 mm | - | 100 W/m² | - |
| 1778159967 | 9.44° C | 58% | 1016.8 hPa | 0 mm | - | 96 W/m² | - |
| 1778159665 | 9.44° C | 57% | 1016.7 hPa | 0 mm | - | 88 W/m² | - |
| 1778159361 | 9.44° C | 57% | 1016.8 hPa | 0 mm | - | 95 W/m² | - |
| 1778159058 | 8.89° C | 57% | 1016.9 hPa | 0 mm | - | 89 W/m² | - |
* Rain latest hour (hover to see other rain measurements)
** Current wind speed in m/s (hover to see current wind gust speed)